• In Moldova, Republic
  • List of Countries
  • For 7 days
  • Water Temperature
  • Satellite Maps
  • Weather Map
  • Weather Widgets
  • user-avatar
    Login

    Hourly Weather Naftalan

    Today, 28 March, Tuesday

    Time Temperature Precipitation Wind Pressure Humidity
    00:00 +7°C° 0 mm 6 mps 761 mmHg 82%
    01:00 +7°C° 0 mm 6 mps 760 mmHg 83%
    02:00 +7°C° 0 mm 5 mps 760 mmHg 84%
    03:00 +7°C° 0 mm 4 mps 760 mmHg 85%
    04:00 +7°C° 0 mm 5 mps 760 mmHg 86%
    05:00 +7°C° 0 mm 5 mps 761 mmHg 86%
    06:00 +7°C° 0 mm 5 mps 761 mmHg 87%
    07:00 +8°C° 0 mm 6 mps 761 mmHg 81%
    08:00 +9°C° 0 mm 7 mps 762 mmHg 75%
    09:00 +10°C° 0 mm 8 mps 763 mmHg 69%
    10:00 +12°C° 0 mm 7 mps 763 mmHg 65%
    11:00 +14°C° 0 mm 7 mps 763 mmHg 60%
    12:00 +15°C° 0 mm 7 mps 764 mmHg 55%
    13:00 +14°C° 0 mm 7 mps 764 mmHg 57%
    14:00 +14°C° 0 mm 7 mps 764 mmHg 60%
    15:00 +12°C° 0 mm 7 mps 765 mmHg 62%
    16:00 +11°C° 0 mm 6 mps 765 mmHg 65%
    17:00 +10°C° 0 mm 5 mps 765 mmHg 68%
    18:00 +10°C° 0 mm 4 mps 765 mmHg 71%
    19:00 +9°C° 0 mm 3 mps 765 mmHg 75%
    20:00 +8°C° 0 mm 3 mps 766 mmHg 79%
    21:00 +8°C° 0 mm 2 mps 766 mmHg 83%
    22:00 +7°C° 0 mm 2 mps 766 mmHg 84%
    23:00 +7°C° 0 mm 3 mps 765 mmHg 85%

    Tomorrow, 29 March, Wednesday

    Time Temperature Precipitation Wind Pressure Humidity
    00:00 +7°C° 0 mm 3 mps 765 mmHg 86%
    01:00 +7°C° 0 mm 3 mps 765 mmHg 82%
    02:00 +7°C° 0 mm 3 mps 764 mmHg 77%
    03:00 +6°C° 0 mm 4 mps 764 mmHg 73%
    04:00 +6°C° 0 mm 5 mps 764 mmHg 66%
    05:00 +6°C° 0 mm 5 mps 764 mmHg 59%
    06:00 +5°C° 0 mm 6 mps 764 mmHg 52%
    07:00 +9°C° 0 mm 7 mps 764 mmHg 46%
    08:00 +11°C° 0 mm 8 mps 764 mmHg 40%
    09:00 +13°C° 0 mm 8 mps 765 mmHg 34%
    10:00 +16°C° 0 mm 8 mps 765 mmHg 33%
    11:00 +17°C° 0 mm 7 mps 765 mmHg 32%
    12:00 +20°C° 0 mm 6 mps 765 mmHg 30%
    13:00 +20°C° 0 mm 6 mps 765 mmHg 31%
    14:00 +20°C° 0 mm 5 mps 765 mmHg 31%
    15:00 +20°C° 0 mm 5 mps 765 mmHg 32%
    16:00 +17°C° 0 mm 5 mps 766 mmHg 43%
    17:00 +14°C° 0 mm 5 mps 766 mmHg 54%
    18:00 +10°C° 0 mm 5 mps 767 mmHg 65%
    19:00 +10°C° 0 mm 5 mps 768 mmHg 68%
    20:00 +10°C° 0 mm 4 mps 769 mmHg 71%
    21:00 +8°C° 0 mm 4 mps 770 mmHg 74%
    22:00 +8°C° 0 mm 4 mps 770 mmHg 76%
    23:00 +8°C° 0 mm 4 mps 771 mmHg 79%

    Day after tomorrow, 30 March, Thursday

    Time Temperature Precipitation Wind Pressure Humidity
    00:00 +7°C° 0 mm 5 mps 771 mmHg 82%
    01:00 +7°C° 0 mm 4 mps 771 mmHg 83%
    02:00 +7°C° 0 mm 4 mps 771 mmHg 84%
    03:00 +6°C° 0 mm 4 mps 771 mmHg 85%
    04:00 +6°C° 0 mm 4 mps 771 mmHg 86%
    05:00 +6°C° 0 mm 4 mps 772 mmHg 87%
    06:00 +6°C° 0 mm 4 mps 772 mmHg 88%
    07:00 +8°C° 0 mm 4 mps 772 mmHg 81%
    08:00 +11°C° 0 mm 4 mps 772 mmHg 73%
    09:00 +13°C° 0 mm 4 mps 772 mmHg 66%
    10:00 +14°C° 0 mm 4 mps 771 mmHg 64%
    11:00 +14°C° 0 mm 4 mps 771 mmHg 62%
    12:00 +15°C° 0 mm 4 mps 770 mmHg 60%
    13:00 +15°C° 0 mm 4 mps 769 mmHg 59%
    14:00 +15°C° 0 mm 4 mps 769 mmHg 58%
    15:00 +17°C° 0 mm 4 mps 768 mmHg 57%
    16:00 +14°C° 0 mm 4 mps 767 mmHg 62%
    17:00 +13°C° 0 mm 3 mps 767 mmHg 67%
    18:00 +12°C° 0 mm 2 mps 767 mmHg 72%
    19:00 +10°C° 0 mm 2 mps 767 mmHg 75%
    20:00 +10°C° 0 mm 1 mps 767 mmHg 78%
    21:00 +10°C° 0 mm 1 mps 767 mmHg 81%
    22:00 +9°C° 0 mm 1 mps 766 mmHg 82%
    23:00 +8°C° 0 mm 2 mps 766 mmHg 82%

    31 March, Friday

    Time Temperature Precipitation Wind Pressure Humidity
    00:00 +8°C° 0 mm 2 mps 765 mmHg 83%
    01:00 +8°C° 0 mm 2 mps 765 mmHg 85%
    02:00 +8°C° 0 mm 3 mps 765 mmHg 86%
    03:00 +8°C° 0 mm 3 mps 764 mmHg 88%
    04:00 +8°C° 0 mm 3 mps 764 mmHg 87%
    05:00 +8°C° 0 mm 3 mps 765 mmHg 85%
    06:00 +7°C° 0 mm 4 mps 765 mmHg 83%
    07:00 +11°C° 0 mm 4 mps 765 mmHg 70%
    08:00 +14°C° 0 mm 4 mps 766 mmHg 56%
    09:00 +17°C° 0 mm 5 mps 766 mmHg 42%
    10:00 +19°C° 0 mm 4 mps 766 mmHg 39%
    11:00 +20°C° 0 mm 4 mps 766 mmHg 35%
    12:00 +22°C° 0 mm 4 mps 766 mmHg 32%
    13:00 +22°C° 0 mm 5 mps 766 mmHg 34%
    14:00 +21°C° 0 mm 6 mps 766 mmHg 36%
    15:00 +21°C° 0 mm 8 mps 767 mmHg 38%
    16:00 +18°C° 0 mm 8 mps 767 mmHg 45%
    17:00 +16°C° 0 mm 8 mps 768 mmHg 52%
    18:00 +13°C° 0 mm 8 mps 769 mmHg 59%
    19:00 +12°C° 0 mm 8 mps 770 mmHg 63%
    20:00 +11°C° 0 mm 8 mps 771 mmHg 68%
    21:00 +10°C° 0 mm 8 mps 771 mmHg 72%
    22:00 +9°C° 0 mm 7 mps 771 mmHg 73%
    23:00 +9°C° 0 mm 7 mps 771 mmHg 74%

    1 April, Saturday

    Time Temperature Precipitation Wind Pressure Humidity
    00:00 +8°C° 0 mm 7 mps 771 mmHg 76%
    01:00 +8°C° 0.2 mm 7 mps 771 mmHg 76%
    02:00 +6°C° 0.2 mm 7 mps 771 mmHg 76%
    03:00 +6°C° 0.2 mm 7 mps 771 mmHg 76%
    04:00 +6°C° 0.1 mm 7 mps 771 mmHg 75%
    05:00 +6°C° 0.1 mm 7 mps 771 mmHg 74%
    06:00 +5°C° 0.1 mm 7 mps 771 mmHg 74%
    07:00 +6°C° 0.4 mm 7 mps 771 mmHg 73%
    08:00 +7°C° 0.4 mm 6 mps 771 mmHg 73%
    09:00 +7°C° 0.4 mm 6 mps 771 mmHg 73%
    10:00 +7°C° 1.3 mm 6 mps 770 mmHg 73%
    11:00 +5°C° 1.3 mm 6 mps 770 mmHg 74%
    12:00 +5°C° 1.3 mm 6 mps 770 mmHg 75%
    13:00 +7°C° 0.1 mm 6 mps 769 mmHg 72%
    14:00 +8°C° 0.1 mm 6 mps 769 mmHg 70%
    15:00 +8°C° 0.1 mm 6 mps 768 mmHg 67%
    16:00 +7°C° 0 mm 6 mps 768 mmHg 70%
    17:00 +7°C° 0 mm 6 mps 769 mmHg 73%
    18:00 +5°C° 0 mm 6 mps 769 mmHg 76%
    19:00 +5°C° 0 mm 6 mps 769 mmHg 77%
    20:00 +5°C° 0 mm 5 mps 769 mmHg 79%
    21:00 +5°C° 0 mm 5 mps 770 mmHg 80%
    22:00 +5°C° 0.2 mm 5 mps 770 mmHg 81%
    23:00 +5°C° 0.2 mm 5 mps 769 mmHg 81%

    2 April, Sunday

    Time Temperature Precipitation Wind Pressure Humidity
    00:00 +5°C° 0.2 mm 5 mps 769 mmHg 81%
    01:00 +4°C° 0.3 mm 6 mps 769 mmHg 81%
    02:00 +4°C° 0.3 mm 6 mps 770 mmHg 81%
    03:00 +3°C° 0.3 mm 7 mps 770 mmHg 81%
    04:00 +3°C° 0.6 mm 7 mps 770 mmHg 81%
    05:00 +3°C° 0.6 mm 6 mps 771 mmHg 82%
    06:00 +3°C° 0.6 mm 6 mps 771 mmHg 82%
    07:00 +4°C° 0.7 mm 7 mps 772 mmHg 80%
    08:00 +4°C° 0.7 mm 7 mps 772 mmHg 78%
    09:00 +5°C° 0.7 mm 8 mps 772 mmHg 76%
    10:00 +5°C° 0.6 mm 8 mps 773 mmHg 74%
    11:00 +6°C° 0.6 mm 7 mps 773 mmHg 72%
    12:00 +6°C° 0.6 mm 7 mps 774 mmHg 69%
    13:00 +6°C° 0.2 mm 7 mps 774 mmHg 67%
    14:00 +6°C° 0.2 mm 7 mps 774 mmHg 64%
    15:00 +8°C° 0.2 mm 7 mps 774 mmHg 62%
    16:00 +7°C° 0 mm 6 mps 774 mmHg 64%
    17:00 +7°C° 0 mm 5 mps 774 mmHg 65%
    18:00 +6°C° 0 mm 4 mps 775 mmHg 67%
    19:00 +5°C° 0 mm 4 mps 775 mmHg 68%
    20:00 +5°C° 0 mm 4 mps 775 mmHg 69%
    21:00 +4°C° 0 mm 3 mps 776 mmHg 69%
    22:00 +3°C° 0 mm 3 mps 775 mmHg 71%
    23:00 +2°C° 0 mm 3 mps 775 mmHg 72%
    Show more